W1HS Weather Reports


Display with metric or nautical units.
time (UTC)temp
F
wind
direction
speed
MPH
gust
MPH
rain 1hr
in
rain 24hr
in
rain mn
in
humidity
%
barometer
mb
20260903061819 60 225 3.0 4.0 0.04 0.04 0.04 91 995.2
20260903060819 60 248 4.0 8.0 0.04 0.04 0.04 90 995.3
20260903055819 61 225 2.0 6.0 0.03 0.03 0.03 89 995.7
20260903054819 61 225 2.0 5.0 0.02 0.02 0.02 88 996.0
20260903053819 62 203 2.0 5.0 0.00 0.00 0.00 85 996.1
20260903052819 62 225 1.0 5.0 0.00 0.00 0.00 85 996.1
20260903051819 63 225 1.0 3.0 0.00 0.00 0.00 83 996.3
20260903050819 63 203 1.0 2.0 0.00 0.00 0.00 83 996.6
20260903045819 63 225 1.0 3.0 0.00 0.00 0.00 82 996.6
20260903044819 63 203 3.0 5.0 0.00 0.00 0.00 82 996.6
20260903043819 63 225 2.0 7.0 0.00 0.00 0.00 82 996.5
20260903042819 63 180 3.0 5.0 0.00 0.00 0.00 82 996.5
20260903041819 63 203 7.0 16.0 0.00 0.00 0.00 83 996.5
20260903040819 63 225 6.0 10.0 0.00 0.00 0.00 83 996.6
20260903035819 64 180 5.0 9.0 0.00 0.00 0.00 83 996.7
20260903034819 64 203 2.0 7.0 0.00 0.00 0.00 83 996.8
20260903033819 64 225 1.0 2.0 0.00 0.00 0.00 83 997.0
20260903032819 64 180 4.0 7.0 0.00 0.00 0.00 83 997.1
20260903031821 64 225 2.0 5.0 0.00 0.00 0.00 83 997.3
20260903030819 64 248 1.0 5.0 0.00 0.00 0.00 83 997.6
20260903025819 64 225 3.0 6.0 0.00 0.00 0.00 83 997.5
20260903024819 64 0.0 1.0 0.00 0.00 0.00 83 997.5
20260903023907 64 225 1.0 4.0 0.00 0.00 0.00 83 997.5
20260903023720 64 180 3.0 8.0 0.00 0.00 0.00 83 997.6
20260903022719 64 0.0 2.0 0.00 0.00 0.00 83 997.6
20260903021721 64 225 3.0 8.0 0.00 0.00 0.00 82 997.4
20260903020719 64 180 3.0 7.0 0.00 0.00 0.00 82 997.7
20260903015719 64 248 1.0 3.0 0.00 0.00 0.00 81 998.0
20260903014719 64 180 2.0 7.0 0.00 0.00 0.00 81 998.1
20260903013826 64 0.0 1.0 0.00 0.00 0.00 80 998.3
20260903013535 64 248 5.0 8.0 0.00 0.00 0.00 80 998.3
20260903013222 64 248 1.0 4.0 0.00 0.00 0.00 80 998.3
20260903012819 64 158 1.0 9.0 0.00 0.00 0.00 80 998.2
20260903011821 64 180 1.0 2.0 0.00 0.00 0.00 80 998.0
20260903010818 64 0.0 2.0 0.00 0.00 0.00 80 998.0
20260903005819 64 158 4.0 9.0 0.00 0.00 0.00 79 997.9
20260903004818 64 0.0 2.0 0.00 0.00 0.00 80 997.9
20260903003819 64 203 3.0 12.0 0.00 0.00 0.00 80 997.9
20260903002819 64 225 5.0 14.0 0.00 0.00 0.00 80 997.7
20260903001819 64 203 2.0 5.0 0.00 0.00 0.00 80 997.5
20260903000819 64 225 4.0 8.0 0.00 0.00 0.00 81 997.3
20260902235819 64 180 3.0 6.0 0.00 0.00 0.00 82 997.4
20260902234819 65 225 1.0 3.0 0.00 0.00 0.00 83 997.0
20260902233818 65 158 5.0 11.0 0.00 0.00 0.00 83 997.3
20260902232819 65 203 2.0 9.0 0.00 0.00 0.00 85 997.7
20260902231818 65 180 2.0 6.0 0.00 0.00 0.00 85 998.2
20260902230818 65 0.0 1.0 0.00 0.00 0.00 85 998.6
20260902225929 65 0.0 1.0 0.00 0.00 0.00 87 998.8
20260902224818 65 0.0 0.0 0.00 0.00 0.00 86 999.0
20260902223819 66 203 1.0 5.0 0.00 0.00 0.00 86 999.3
20260902222819 66 0.0 0.0 0.00 0.00 0.00 87 999.3
20260902221818 66 0.0 0.0 0.00 0.00 0.00 87 999.3
20260902220818 66 0.0 2.0 0.00 0.00 0.00 87 999.4
20260902215819 66 0.0 0.0 0.00 0.00 0.00 87 999.4
20260902214818 66 0.0 0.0 0.00 0.00 0.00 87 999.4
20260902213818 66 0.0 1.0 0.00 0.00 0.00 86 999.3
20260902212819 66 0.0 0.0 0.00 0.00 0.00 86 999.2
20260902211819 67 0.0 2.0 0.00 0.00 0.00 85 999.2
20260902210818 67 0.0 0.0 0.00 0.01 0.00 84 999.5
20260902205818 67 0.0 3.0 0.00 0.01 0.00 83 999.6
20260902204818 67 0.0 1.0 0.00 0.01 0.00 83 999.4
20260902203818 67 113 1.0 3.0 0.00 0.01 0.00 84 999.4
20260902202819 68 0.0 1.0 0.00 0.01 0.00 83 999.3
20260902201819 68 0.0 2.0 0.00 0.01 0.00 81 999.7
20260902200819 68 0.0 1.0 0.00 0.01 0.00 82 999.6
20260902195818 68 0.0 1.0 0.00 0.01 0.00 81 999.9
20260902194820 68 0.0 0.0 0.00 0.01 0.00 81 999.9
20260902193818 68 158 2.0 7.0 0.00 0.01 0.00 81 999.8
20260902192818 68 0.0 1.0 0.00 0.01 0.00 83 1000.0
20260902191845 67 0.0 0.0 0.00 0.01 0.00 83 1000.2
20260902155218 66 158 1.0 2.0 0.00 0.07 0.00 83 1001.1
20260902154220 66 225 1.0 3.0 0.00 0.07 0.00 84 1001.3
20260902153218 66 203 1.0 4.0 0.00 0.07 0.00 85 1001.4
20260902152217 66 203 1.0 3.0 0.00 0.07 0.00 83 1001.5
20260902151903 66 248 3.0 4.0 0.00 0.07 0.00 84 1001.7
20260902151018 66 248 1.0 3.0 0.00 0.07 0.00 85 1001.6
20260902150018 65 0.0 1.0 0.00 0.07 0.00 84 1001.8
20260902145018 65 225 2.0 4.0 0.00 0.07 0.00 82 1001.7
20260902144018 65 225 1.0 4.0 0.00 0.07 0.00 83 1001.5
20260902143019 65 225 3.0 6.0 0.00 0.07 0.00 85 1001.6
20260902142019 64 248 3.0 6.0 0.00 0.07 0.00 85 1001.4
20260902141019 64 248 2.0 4.0 0.00 0.07 0.00 87 1001.2
20260902140020 63 158 2.0 5.0 0.00 0.07 0.00 88 1001.2
20260902135017 63 248 1.0 4.0 0.00 0.07 0.00 92 1001.2
20260902134020 62 0.0 0.0 0.00 0.07 0.00 93 1001.0
20260902133020 62 0.0 0.0 0.00 0.07 0.00 92 1001.0
20260902132020 62 0.0 1.0 0.00 0.07 0.00 94 1000.7
20260902131019 61 0.0 2.0 0.00 0.07 0.00 95 1000.6
20260902130019 61 0.0 1.0 0.00 0.07 0.00 96 1000.6
20260902125018 61 0.0 0.0 0.00 0.08 0.00 96 1000.8
20260902124019 61 0.0 0.0 0.00 0.09 0.00 97 1000.7
20260902123024 60 0.0 0.0 0.00 0.11 0.00 97 1000.8
20260902122020 60 0.0 0.0 0.00 0.13 0.00 96 1000.9
20260902121020 60 0.0 0.0 0.00 0.14 0.00 97 1000.9
20260902120019 60 0.0 0.0 0.00 0.16 0.00 96 1000.8
20260902115022 60 0.0 0.0 0.00 0.18 0.00 97 1000.9
20260902114019 60 0.0 0.0 0.00 0.22 0.00 97 1000.9
20260902113019 60 0.0 0.0 0.00 0.25 0.00 97 1000.9
20260902112019 59 0.0 0.0 0.00 0.26 0.00 97 1000.9
20260902111020 59 0.0 0.0 0.00 0.26 0.00 96 1001.1
20260902110019 59 0.0 0.0 0.00 0.27 0.00 96 1001.0
20260902105020 59 0.0 0.0 0.00 0.28 0.00 96 1000.9
20260902104019 59 0.0 0.0 0.00 0.30 0.00 96 1000.7
20260902103020 59 0.0 0.0 0.00 0.30 0.00 96 1000.8
20260902102019 59 0.0 0.0 0.00 0.30 0.00 96 1000.7
20260902101019 59 0.0 0.0 0.00 0.30 0.00 96 1000.4
20260902100019 59 0.0 0.0 0.00 0.30 0.00 96 1000.4
20260902095117 59 0.0 0.0 0.00 0.30 0.00 96 1000.3
20260902094721 59 0.0 0.0 0.00 0.30 0.00 96 1000.4
20260902093719 59 0.0 0.0 0.00 0.30 0.00 96 1000.3
20260902092719 59 0.0 0.0 0.00 0.30 0.00 96 1000.3
20260902091719 59 0.0 0.0 0.00 0.30 0.00 96 1000.3
20260902090719 59 0.0 0.0 0.00 0.30 0.00 96 1000.1
20260902085719 59 0.0 0.0 0.00 0.30 0.00 96 999.9
20260902084721 59 0.0 0.0 0.00 0.30 0.00 96 999.9
20260902083719 59 0.0 0.0 0.00 0.30 0.00 96 1000.0
20260902082719 59 0.0 0.0 0.00 0.30 0.00 96 1000.0
20260902081719 59 0.0 0.0 0.00 0.30 0.00 96 1000.1
20260902080719 60 0.0 0.0 0.00 0.30 0.00 96 1000.1
20260902075719 60 0.0 0.0 0.00 0.30 0.00 96 1000.1
20260902074719 60 0.0 0.0 0.00 0.30 0.00 96 1000.1
20260902073720 60 0.0 0.0 0.00 0.30 0.00 96 1000.0
20260902072719 60 0.0 0.0 0.00 0.30 0.00 96 999.8
20260902071719 61 0.0 0.0 0.00 0.30 0.00 96 999.9
20260902070719 61 0.0 0.0 0.00 0.30 0.00 96 1000.2
20260902065719 61 0.0 0.0 0.00 0.30 0.00 96 1000.5
20260902064719 61 0.0 0.0 0.00 0.30 0.00 96 1000.4
20260902063719 61 0.0 0.0 0.00 0.30 0.00 96 1000.2
20260902062719 61 0.0 0.0 0.00 0.30 0.00 96 1000.0